1493748000.8,27645,13.63,73942.0,-0.89,-28.09,-28.31,0,*68
1493748002.03,27646,13.69,73948.8,-0.91,-28.09,-28.31,0,*62
1493748003.27,27647,13.69,73946.3,-0.91,-28.25,-28.31,0,*6D
1493748004.49,27648,13.69,73946.5,-0.91,-28.15,-28.47,0,*60
1493748005.72,27649,13.63,73946.0,-0.91,-28.15,-28.59,0,*6E
1493748006.94,27650,13.63,73946.0,-0.93,-28.31,-28.53,0,*68
1493748008.14,27651,13.69,73948.0,-0.95,-28.31,-28.53,0,*6F
1493748009.37,27652,13.63,73946.8,-0.95,-28.31,-28.63,0,*6F
1493748010.6,27653,13.63,73946.3,-0.93,-28.31,-28.53,0,*6B
1493748011.85,27654,13.63,73944.5,-0.93,-28.31,-28.63,0,*6F
1493748013.1,27655,13.63,73944.8,-0.93,-28.31,-28.63,0,*6E
1493748014.33,27656,13.63,73944.3,-0.93,-28.37,-28.69,0,*61
1493748015.58,27657,13.63,73946.5,-0.93,-28.47,-28.69,0,*67
1493748016.78,27658,13.69,73948.3,-0.95,-28.37,-28.69,0,*69
1493748018.01,27659,13.69,73946.3,-0.95,-28.37,-28.75,0,*65
1493748019.25,27660,13.69,73948.0,-0.93,-28.47,-28.85,0,*61
1493748020.49,27661,13.69,73944.5,-0.95,-28.47,-28.75,0,*69
1493748021.72,27662,13.69,73944.3,-0.95,-28.37,-28.75,0,*6D
1493748022.99,27663,13.63,73946.8,-0.97,-28.43,-28.75,0,*6D
1493748024.23,27664,13.63,73946.8,-0.97,-28.37,-28.75,0,*69
1493748025.52,27665,13.63,73944.5,-0.97,-28.25,-28.59,0,*65
1493748026.78,27666,13.69,73946.8,-0.97,-28.43,-28.79,0,*64
1493748028.05,27667,13.69,73944.0,-0.97,-28.43,-28.79,0,*65
1493748029.3,27668,13.69,73944.5,-0.97,-28.37,-28.75,0,*65
1493748030.55,27669,13.63,73944.0,-0.97,-28.37,-28.79,0,*68
1493748031.82,27670,13.69,73950.0,-0.97,-28.43,-28.91,0,*65
1493748033.09,27671,13.63,73946.0,-0.97,-28.43,-28.75,0,*6E
1493748034.33,27672,13.63,73946.0,-0.99,-28.47,-28.79,0,*6B
1493748035.57,27673,13.63,73944.0,-0.99,-28.47,-28.79,0,*6A
1493748036.79,27674,13.69,73946.0,-0.99,-28.31,-28.75,0,*60
1493748038.05,27675,13.69,73948.8,-0.97,-28.25,-28.69,0,*67
1493748039.28,27676,13.69,73948.0,-0.97,-28.37,-28.69,0,*67
1493748040.52,27677,13.63,73948.5,-0.97,-28.37,-28.79,0,*67
1493748041.75,27678,13.69,73950.5,-0.99,-28.59,-28.97,0,*6E
1493748043.0,27679,13.69,73948.5,-0.97,-28.53,-28.91,0,*6D
1493748044.23,27680,13.69,73948.0,-0.99,-28.47,-28.85,0,*65
1493748045.46,27681,13.69,73948.8,-0.99,-28.31,-28.63,0,*6D
1493748046.73,27682,13.63,73944.8,-1.01,-28.43,-28.79,0,*50
1493748048.01,27683,13.63,73944.0,-1.01,-28.43,-28.75,0,*5D
1493748049.26,27684,13.69,73948.5,-1.01,-28.31,-28.75,0,*5F
1493748050.54,27685,13.69,73948.0,-1.01,-28.43,-28.79,0,*57
1493748051.77,27686,13.69,73950.8,-0.99,-28.43,-28.85,0,*67
1493748053.0,27687,13.63,73948.5,-0.99,-28.43,-28.85,0,*66
1493748054.24,27688,13.63,73950.8,-0.99,-28.43,-28.79,0,*6A
1493748055.48,27689,13.63,73950.8,-0.99,-28.43,-28.75,0,*67
1493748056.74,27690,13.69,73954.0,-1.01,-28.43,-28.85,0,*50
1493748058.04,27691,13.69,73954.8,-1.01,-28.25,-28.63,0,*59
1493748059.28,27692,13.69,73954.3,-1.03,-28.21,-28.85,0,*54
1493748060.56,27693,13.63,73950.3,-1.01,-28.25,-28.75,0,*5C
1493748061.84,27694,13.63,73950.5,-1.01,-28.25,-28.75,0,*5B
1493748063.12,27695,13.63,73948.0,-1.01,-28.25,-28.79,0,*56
1493748064.4,27696,13.63,73948.3,-1.01,-28.25,-28.75,0,*59
1493748065.69,27697,13.63,73948.0,-1.01,-28.25,-28.63,0,*5F
1493748066.93,27698,13.63,73944.8,-1.01,-28.31,-28.69,0,*5F
1493748068.15,27699,13.69,73948.5,-1.03,-28.47,-28.37,0,*56
1493748069.42,27700,13.63,73948.0,-1.03,-28.21,-28.21,0,*50
1493748070.68,27701,13.69,73954.3,-1.01,-28.15,-27.99,0,*58
1493748071.94,27702,13.63,73950.0,-1.03,-27.99,-27.99,0,*52
1493748073.23,27703,13.69,73950.0,-1.01,-27.61,-27.61,0,*51
1493748074.47,27704,13.63,73950.0,-1.03,-27.61,-27.51,0,*57
1493748075.73,27705,13.63,73950.8,-1.03,-27.35,-27.35,0,*55
1493748076.95,27706,13.63,73946.8,-1.03,-27.29,-27.29,0,*56
1493748078.21,27707,13.63,73946.3,-1.03,-27.45,-27.19,0,*5E
1493748079.44,27708,13.63,73948.5,-1.05,-27.51,-27.29,0,*51
1493748080.67,27709,13.63,73950.0,-1.03,-27.51,-27.45,0,*5C
1493748081.91,27710,13.63,73950.8,-1.03,-27.61,-27.71,0,*50
1493748083.15,27711,13.69,73952.5,-1.03,-27.45,-27.71,0,*57
1493748084.41,27712,13.63,73946.8,-1.03,-27.61,-28.05,0,*5E
1493748085.63,27713,13.63,73948.0,-1.03,-27.71,-28.15,0,*5F
1493748086.88,27714,13.63,73950.3,-1.03,-27.83,-28.21,0,*52
1493748088.1,27715,13.63,73950.8,-1.03,-27.89,-28.31,0,*58
1493748089.33,27716,13.69,73950.5,-1.03,-28.05,-28.37,0,*56
1493748090.56,27717,13.69,73950.3,-1.03,-27.99,-28.37,0,*5D
1493748091.82,27718,13.63,73950.3,-1.05,-28.21,-28.37,0,*58
1493748093.08,27719,13.69,73948.8,-1.05,-28.21,-28.37,0,*59
1493748094.35,27720,13.63,73948.0,-1.05,-28.05,-28.31,0,*53
1493748095.61,27721,13.63,73946.5,-1.05,-28.05,-28.37,0,*54
1493748096.84,27722,13.63,73944.5,-1.05,-28.15,-28.37,0,*56
1493748098.12,27723,13.63,73946.0,-1.05,-28.21,-28.47,0,*57
1493748099.38,27724,13.63,73942.8,-1.05,-28.21,-28.53,0,*55
1493748100.62,27725,13.63,73944.3,-1.07,-28.25,-28.53,0,*52
1493748101.91,27726,13.69,73946.0,-1.05,-28.05,-28.21,0,*54
1493748103.21,27727,13.63,73942.8,-1.05,-27.61,-28.05,0,*5E
1493748104.49,27728,13.63,73946.0,-1.05,-27.83,-28.21,0,*5B
1493748105.73,27729,13.63,73942.0,-1.07,-27.77,-28.25,0,*57
1493748106.97,27730,13.63,73946.3,-1.07,-27.93,-28.21,0,*51
1493748108.23,27731,13.63,73942.0,-1.05,-27.61,-27.71,0,*55
1493748109.49,27732,13.63,73944.3,-1.05,-27.45,-27.89,0,*57
1493748110.73,27733,13.63,73946.0,-1.07,-27.89,-28.05,0,*5F
1493748111.99,27734,13.63,73944.8,-1.05,-27.67,-27.99,0,*50
1493748113.2,27735,13.63,73944.5,-1.07,-27.71,-27.93,0,*5E
1493748114.46,27736,13.63,73946.0,-1.05,-27.89,-28.21,0,*5E
1493748115.74,27737,13.63,73946.5,-1.05,-27.99,-28.43,0,*5A
1493748116.98,27738,13.63,73944.0,-1.07,-28.21,-28.53,0,*5A
1493748118.24,27739,13.63,73944.8,-1.07,-28.21,-28.43,0,*5A
1493748119.5,27740,13.63,73942.5,-1.05,-28.15,-28.47,0,*55
1493748120.74,27741,13.63,73942.3,-1.07,-28.05,-28.37,0,*50
1493748121.98,27742,13.63,73946.8,-1.07,-27.93,-28.25,0,*50
1493748123.22,27743,13.63,73944.3,-1.07,-28.05,-28.37,0,*52
1493748124.48,27744,13.63,73944.3,-1.07,-28.05,-28.43,0,*56
1493748125.72,27745,13.63,73946.8,-1.07,-28.09,-28.53,0,*5A
1493748126.97,27746,13.63,73946.0,-1.05,-28.15,-28.47,0,*53
1493748128.21,27747,13.63,73946.3,-1.07,-28.05,-28.37,0,*56
1493748129.45,27748,13.63,73946.0,-1.07,-27.93,-28.25,0,*5A
1493748130.68,27749,13.63,73948.5,-1.07,-28.09,-28.53,0,*56
1493748131.94,27750,13.63,73948.3,-1.07,-28.09,-28.43,0,*5F
1493748133.2,27751,13.63,73946.0,-1.07,-28.09,-28.43,0,*5E
1493748134.46,27752,13.63,73948.0,-1.05,-28.05,-28.37,0,*50
1493748135.7,27753,13.63,73948.3,-1.11,-28.21,-28.53,0,*50
1493748136.96,27754,13.69,73948.3,-1.07,-28.21,-28.43,0,*51
1493748138.22,27755,13.63,73946.0,-1.07,-28.09,-28.43,0,*5A
1493748139.49,27756,13.63,73950.8,-1.07,-28.09,-28.59,0,*52
1493748140.72,27757,13.63,73950.8,-1.11,-28.21,-28.53,0,*54
1493748141.98,27758,13.63,73948.8,-1.11,-28.05,-28.43,0,*5C
1493748143.25,27759,13.63,73948.0,-1.07,-28.05,-28.43,0,*5A
1493748144.5,27760,13.63,73950.0,-1.11,-28.09,-28.43,0,*5B
1493748145.77,27761,13.63,73948.0,-1.11,-28.21,-28.59,0,*5B
1493748147.0,27762,13.63,73946.3,-1.11,-28.09,-28.53,0,*58
1493748148.23,27763,13.63,73946.0,-1.11,-27.93,-28.43,0,*54
1493748149.49,27764,13.63,73944.0,-1.11,-28.05,-28.43,0,*53
1493748150.76,27765,13.63,73946.3,-1.07,-28.05,-28.43,0,*55
1493748152.0,27766,13.63,73946.3,-1.07,-27.77,-28.25,0,*5C
1493748153.23,27767,13.63,73946.0,-1.11,-27.93,-28.43,0,*50
1493748154.49,27768,13.63,73946.0,-1.11,-28.05,-28.43,0,*5F
1493748155.72,27769,13.69,73948.0,-1.11,-27.93,-28.43,0,*5E
1493748156.96,27770,13.63,73944.3,-1.07,-27.93,-28.43,0,*51
1493748158.17,27771,13.63,73946.8,-1.11,-27.77,-28.37,0,*5E
1493748159.41,27772,13.69,73948.0,-1.07,-27.77,-28.21,0,*5D
1493748160.65,27773,13.63,73946.0,-1.07,-28.05,-28.53,0,*53
1493748161.89,27774,13.63,73946.0,-1.07,-28.05,-28.53,0,*54
1493748163.12,27775,13.63,73944.8,-1.11,-28.05,-28.53,0,*52
1493748164.39,27776,13.63,73946.0,-1.13,-28.15,-28.63,0,*51
1493748165.62,27777,13.63,73944.0,-1.11,-28.09,-28.53,0,*5C
1493748166.86,27778,13.63,73942.8,-1.11,-28.05,-28.53,0,*5F
1493748168.12,27779,13.63,73940.5,-1.11,-28.09,-28.59,0,*58
1493748169.38,27780,13.63,73944.8,-1.11,-28.21,-28.59,0,*54
1493748170.64,27781,13.63,73944.3,-1.11,-28.09,-28.59,0,*5F
1493748171.93,27782,13.69,73946.0,-1.13,-28.25,-28.59,0,*50
1493748173.19,27783,13.63,73942.0,-1.13,-28.15,-28.59,0,*52
1493748174.43,27784,13.63,73940.3,-1.11,-27.93,-28.43,0,*5D
1493748175.71,27785,13.63,73942.0,-1.13,-27.99,-28.47,0,*50
1493748176.97,27786,13.63,73944.3,-1.13,-27.93,-28.43,0,*5D
1493748178.23,27787,13.63,73946.0,-1.07,-28.05,-28.59,0,*52
1493748179.5,27788,13.63,73944.5,-1.07,-28.09,-28.59,0,*51
1493748180.76,27789,13.63,73948.5,-1.11,-28.09,-28.59,0,*57
1493748182.04,27790,13.63,73946.3,-1.13,-28.09,-28.59,0,*5D
1493748183.3,27791,13.63,73948.8,-1.11,-28.09,-28.59,0,*5E
1493748184.59,27792,13.63,73950.5,-1.13,-28.09,-28.59,0,*5F
1493748185.8,27793,13.63,73946.0,-1.11,-27.93,-28.53,0,*5A
1493748187.09,27794,13.63,73948.3,-1.13,-28.09,-28.59,0,*59
1493748188.32,27795,13.63,73944.8,-1.11,-28.05,-28.53,0,*5C
1493748189.56,27796,13.63,73944.0,-1.11,-27.93,-28.43,0,*5E
1493748190.84,27797,13.63,73946.8,-1.13,-27.99,-28.47,0,*53
1493748192.1,27798,13.63,73948.0,-1.13,-28.15,-28.63,0,*51
1493748193.36,27799,13.63,73944.8,-1.11,-28.09,-28.59,0,*56
1493748194.65,27800,13.63,73948.3,-1.13,-28.09,-28.59,0,*5B
1493748195.88,27801,13.63,73946.0,-1.11,-28.09,-28.53,0,*52
1493748197.14,27802,13.63,73950.8,-1.13,-28.15,-28.63,0,*5D
1493748198.43,27803,13.63,73948.0,-1.13,-28.09,-28.59,0,*58
1493748199.7,27804,13.63,73944.5,-1.15,-28.09,-28.63,0,*50
1493748200.98,27805,13.63,73948.8,-1.13,-28.09,-28.75,0,*50
1493748202.24,27806,13.63,73948.3,-1.11,-28.09,-28.59,0,*5F
1493748203.5,27807,13.63,73948.5,-1.11,-28.09,-28.59,0,*5E
1493748204.79,27808,13.63,73950.0,-1.13,-28.09,-28.63,0,*5A
1493748206.08,27809,13.63,73952.0,-1.13,-28.09,-28.63,0,*5B
1493748207.36,27810,13.63,73950.8,-1.13,-28.09,-28.59,0,*5A
1493748208.62,27811,13.63,73946.8,-1.15,-27.99,-28.59,0,*5B
1493748209.85,27812,13.63,73948.0,-1.17,-28.05,-28.69,0,*53
1493748211.09,27813,13.63,73950.0,-1.15,-27.93,-28.47,0,*5C
1493748212.32,27814,13.63,73946.3,-1.15,-27.77,-28.43,0,*55
1493748213.56,27815,13.63,73946.5,-1.15,-27.93,-28.43,0,*5E
1493748214.85,27816,13.63,73944.5,-1.13,-27.99,-28.59,0,*5A
1493748216.11,27817,13.63,73946.0,-1.15,-27.99,-28.59,0,*5D
1493748217.37,27818,13.63,73940.8,-1.15,-27.99,-28.43,0,*59
1493748218.62,27819,13.63,73946.3,-1.15,-27.83,-28.43,0,*53
1493748219.86,27820,13.63,73946.5,-1.15,-27.83,-28.31,0,*5C
1493748221.1,27821,13.63,73944.0,-1.15,-27.83,-28.31,0,*5D
1493748222.3,27822,13.63,73948.3,-1.17,-27.89,-28.31,0,*56
1493748223.54,27823,13.63,73950.3,-1.15,-27.77,-28.25,0,*51
1493748224.77,27824,13.63,73946.0,-1.17,-27.55,-28.09,0,*5A
1493748225.98,27825,13.63,73946.8,-1.15,-27.71,-28.15,0,*52
1493748227.22,27826,13.63,73944.8,-1.13,-27.93,-28.31,0,*5D
1493748228.46,27827,13.63,73944.8,-1.11,-27.77,-28.25,0,*51
1493748229.66,27828,13.63,73942.0,-1.17,-27.89,-28.37,0,*5A
1493748230.9,27829,13.63,73944.5,-1.15,-27.93,-28.43,0,*51
1493748232.12,27830,13.63,73944.3,-1.17,-27.99,-28.53,0,*50
1493748233.36,27831,13.63,73942.3,-1.13,-27.77,-28.31,0,*51
1493748234.61,27832,13.63,73944.5,-1.15,-27.61,-28.15,0,*55
1493748235.85,27833,13.63,73946.8,-1.15,-27.55,-28.09,0,*5E
1493748237.08,27834,13.63,73944.8,-1.15,-27.71,-28.09,0,*5F
1493748238.3,27835,13.63,73942.5,-1.15,-27.77,-28.15,0,*55
1493748239.52,27836,13.63,73946.5,-1.15,-27.67,-28.15,0,*57
1493748240.74,27837,13.63,73950.3,-1.15,-27.77,-28.15,0,*57
1493748241.98,27838,13.63,73946.0,-1.17,-27.61,-28.15,0,*5D
1493748243.21,27839,13.63,73946.5,-1.15,-27.71,-28.09,0,*52
1493748244.45,27840,13.63,73950.0,-1.15,-27.55,-28.09,0,*5A
1493748245.7,27841,13.63,73946.8,-1.15,-27.61,-28.15,0,*51
1493748246.94,27842,13.63,73944.5,-1.13,-27.71,-28.15,0,*55
1493748248.23,27843,13.63,73950.0,-1.13,-27.61,-28.09,0,*58
1493748249.44,27844,13.63,73950.5,-1.11,-27.51,-27.89,0,*59
1493748250.73,27845,13.63,73948.8,-1.13,-27.61,-28.09,0,*5E
1493748251.99,27846,13.63,73944.8,-1.13,-27.55,-28.09,0,*5A
1493748253.25,27847,13.63,73950.5,-1.13,-27.55,-28.09,0,*5B
1493748254.5,27848,13.63,73946.3,-1.13,-27.39,-27.93,0,*52
1493748255.74,27849,13.63,73948.5,-1.11,-27.39,-27.93,0,*51
1493748256.94,27850,13.63,73950.5,-1.11,-27.51,-27.93,0,*57
1493748258.15,27851,13.63,73946.0,-1.11,-27.51,-27.93,0,*56
1493748259.41,27852,13.63,73946.5,-1.13,-27.55,-27.99,0,*59
1493748260.62,27853,13.63,73946.0,-1.11,-27.51,-27.93,0,*54
1493748261.88,27854,13.63,73950.0,-1.13,-27.77,-28.25,0,*57
1493748263.15,27855,13.63,73946.0,-1.13,-27.61,-28.15,0,*52
1493748264.39,27856,13.63,73948.0,-1.11,-27.77,-28.21,0,*53
1493748265.65,27857,13.63,73948.3,-1.13,-27.77,-28.25,0,*54
1493748266.91,27858,13.63,73948.3,-1.13,-27.83,-28.31,0,*55
1493748268.15,27859,13.63,73948.5,-1.11,-27.77,-28.25,0,*58
1493748269.44,27860,13.63,73948.5,-1.13,-28.25,-28.75,0,*5D
1493748270.69,27861,13.63,73946.5,-1.13,-28.15,-28.59,0,*51
1493748271.96,27862,13.63,73948.3,-1.11,-28.05,-28.59,0,*51
1493748273.2,27863,13.63,73944.5,-1.11,-28.05,-28.69,0,*53
1493748274.45,27864,13.63,73948.8,-1.11,-28.21,-28.75,0,*5F
1493748275.67,27865,13.63,73946.8,-1.11,-28.37,-28.85,0,*56
1493748276.9,27866,13.63,73950.3,-1.11,-28.25,-28.85,0,*56
1493748278.16,27867,13.63,73950.3,-1.13,-28.59,-28.97,0,*5D
1493748279.45,27868,13.63,73948.0,-1.13,-28.63,-29.17,0,*52
1493748280.73,27869,13.63,73948.5,-1.13,-28.63,-29.17,0,*53
1493748282.01,27870,13.63,73948.5,-1.13,-28.63,-29.29,0,*56
1493748283.27,27871,13.63,73948.5,-1.13,-28.75,-29.45,0,*5A
1493748284.5,27872,13.63,73948.5,-1.07,-28.85,-29.39,0,*58
1493748285.8,27873,13.63,73950.5,-1.13,-28.91,-29.51,0,*57
1493748287.03,27874,13.63,73950.3,-1.13,-28.97,-29.67,0,*53
1493748288.29,27875,13.63,73954.5,-1.13,-29.01,-29.61,0,*5A
1493748289.55,27876,13.63,73950.5,-1.13,-29.13,-29.95,0,*51
1493748290.81,27877,13.63,73948.8,-1.13,-29.29,-29.95,0,*59
1493748292.1,27878,13.63,73948.8,-1.13,-29.29,-30.01,0,*53
1493748293.39,27879,13.63,73946.8,-1.13,-29.35,-30.05,0,*5B
1493748294.68,27880,13.63,73946.3,-1.13,-29.51,-30.05,0,*5F
1493748295.92,27881,13.63,73950.8,-1.15,-29.51,-30.23,0,*5C
1493748297.17,27882,13.63,73950.8,-1.15,-29.51,-30.23,0,*5F
1493748298.46,27883,13.63,73952.8,-1.13,-29.51,-30.39,0,*53
1493748299.7,27884,13.63,73952.3,-1.13,-29.61,-30.33,0,*5D
1493748300.95,27885,13.63,73950.5,-1.13,-29.67,-30.33,0,*5A
1493748302.21,27886,13.63,73948.0,-1.13,-29.61,-30.51,0,*5B
1493748303.47,27887,13.63,73948.8,-1.13,-29.61,-30.55,0,*5E
1493748304.71,27888,13.63,73944.8,-1.15,-29.83,-30.55,0,*5B
1493748305.98,27889,13.63,73950.8,-1.13,-29.95,-30.73,0,*5F
1493748307.25,27890,13.63,73950.8,-1.15,-30.01,-30.73,0,*54
1493748308.49,27891,13.63,73950.0,-1.11,-29.79,-30.61,0,*55
1493748309.76,27892,13.63,73954.8,-1.13,-30.01,-30.67,0,*55
1493748311.0,27893,13.63,73948.0,-1.13,-29.95,-30.67,0,*51
1493748312.27,27894,13.63,73948.5,-1.13,-29.95,-30.73,0,*53
1493748313.57,27895,13.63,73954.3,-1.13,-30.17,-30.89,0,*55
1493748314.83,27896,13.63,73948.0,-1.13,-30.23,-30.89,0,*51
1493748316.1,27897,13.63,73950.0,-1.13,-30.05,-30.83,0,*5E
1493748317.31,27898,13.63,73950.5,-1.15,-30.33,-31.05,0,*5D
1493748318.51,27899,13.63,73952.3,-1.15,-30.23,-31.01,0,*59
1493748319.73,27900,13.63,73952.8,-1.17,-30.39,-31.05,0,*55
1493748320.94,27901,13.63,73954.5,-1.15,-30.33,-31.17,0,*5F
1493748322.2,27902,13.63,73952.3,-1.13,-30.39,-31.05,0,*53
1493748323.43,27903,13.63,73950.3,-1.13,-30.33,-31.05,0,*58
1493748324.69,27904,13.63,73952.3,-1.13,-30.51,-31.29,0,*55
1493748325.92,27905,13.63,73950.3,-1.15,-30.39,-31.17,0,*51
1493748327.15,27906,13.63,73954.8,-1.15,-30.39,-31.17,0,*52
1493748328.41,27907,13.63,73950.3,-1.13,-30.51,-31.29,0,*56
1493748329.67,27908,13.63,73952.8,-1.13,-30.55,-31.17,0,*50
1493748330.92,27909,13.63,73950.8,-1.13,-30.55,-31.29,0,*5C
1493748332.17,27910,13.63,73948.3,-1.17,-30.61,-31.23,0,*5D
1493748333.41,27911,13.63,73948.5,-1.15,-30.55,-31.29,0,*53
1493748334.64,27912,13.63,73948.5,-1.15,-30.55,-31.29,0,*50
1493748335.87,27913,13.63,73948.0,-1.15,-30.55,-31.29,0,*51
1493748337.1,27914,13.63,73950.0,-1.15,-30.55,-31.29,0,*56
1493748338.32,27915,13.63,73952.8,-1.15,-30.67,-31.29,0,*56
1493748339.54,27916,13.63,73954.3,-1.15,-30.67,-31.45,0,*5F
1493748340.78,27917,13.63,73950.3,-1.15,-30.73,-31.45,0,*5B
1493748342.01,27918,13.63,73950.3,-1.17,-30.73,-31.45,0,*56
1493748343.25,27919,13.63,73954.3,-1.15,-30.67,-31.39,0,*5B
1493748344.48,27920,13.63,73956.0,-1.17,-30.77,-31.45,0,*59
1493748345.72,27921,13.63,73954.0,-1.17,-30.77,-31.45,0,*58
1493748346.97,27922,13.63,73956.0,-1.17,-30.77,-31.51,0,*5E
1493748348.22,27923,13.63,73954.5,-1.15,-30.55,-31.39,0,*53
1493748349.48,27924,13.63,73952.3,-1.17,-30.73,-31.51,0,*5C
1493748350.69,27925,13.63,73954.3,-1.15,-30.67,-31.45,0,*5F
1493748351.92,27926,13.63,73950.0,-1.17,-30.89,-31.67,0,*5E
1493748353.18,27927,13.63,73956.0,-1.15,-30.73,-31.61,0,*5E
1493748354.42,27928,13.63,73952.5,-1.15,-30.83,-31.57,0,*5B
1493748355.68,27929,13.63,73950.0,-1.15,-30.89,-31.61,0,*55
1493748356.9,27930,13.63,73948.5,-1.17,-30.95,-31.79,0,*5B
1493748358.15,27931,13.63,73948.5,-1.17,-30.95,-31.85,0,*59
1493748359.38,27932,13.63,73948.3,-1.17,-30.95,-31.79,0,*59
1493748360.6,27933,13.63,73948.3,-1.17,-30.95,-31.79,0,*58
1493748361.81,27934,13.63,73946.0,-1.15,-31.01,-31.79,0,*51
1493748363.01,27935,13.63,73946.0,-1.17,-31.05,-31.79,0,*56
1493748364.25,27936,13.63,73944.5,-1.19,-31.05,-31.85,0,*58
1493748365.45,27937,13.63,73946.5,-1.17,-31.05,-31.79,0,*54
1493748366.67,27938,13.63,73948.8,-1.17,-30.95,-31.79,0,*53
1493748367.95,27939,13.63,73944.8,-1.19,-30.77,-31.51,0,*5A
1493748369.23,27940,13.63,73946.3,-1.19,-30.89,-31.51,0,*55
1493748370.46,27941,13.63,73948.5,-1.17,-30.61,-31.45,0,*59
1493748371.74,27942,13.63,73946.5,-1.19,-30.73,-31.51,0,*52
1493748372.99,27943,13.63,73948.8,-1.17,-30.77,-31.61,0,*5A
1493748374.24,27944,13.63,73946.3,-1.17,-30.77,-31.51,0,*5E
1493748375.5,27945,13.63,73944.8,-1.17,-30.89,-31.51,0,*5E
1493748376.75,27946,13.63,73948.0,-1.19,-30.95,-31.67,0,*5B
1493748378.0,27947,13.63,73944.0,-1.19,-30.95,-31.67,0,*5A
1493748379.25,27948,13.63,73950.3,-1.19,-30.95,-31.67,0,*55
1493748380.5,27949,13.63,73950.8,-1.19,-30.89,-31.67,0,*59
1493748381.76,27950,13.63,73952.5,-1.19,-30.77,-31.45,0,*50
1493748383.04,27951,13.63,73952.0,-1.19,-30.61,-31.23,0,*56
1493748384.28,27952,13.63,73952.3,-1.17,-30.55,-31.23,0,*5C
1493748385.54,27953,13.63,73952.8,-1.19,-30.73,-31.45,0,*57
1493748386.82,27954,13.63,73952.5,-1.19,-30.77,-31.61,0,*52
1493748388.1,27955,13.63,73948.0,-1.19,-30.89,-31.61,0,*52
1493748389.35,27956,13.63,73950.0,-1.19,-30.95,-31.67,0,*5A
1493748390.63,27957,13.63,73948.0,-1.19,-30.77,-31.61,0,*51
1493748391.89,27958,13.63,73944.8,-1.19,-30.77,-31.45,0,*58
1493748393.14,27959,13.63,73948.3,-1.19,-30.77,-31.33,0,*58
1493748394.42,27960,13.63,73946.3,-1.19,-30.77,-31.51,0,*56
1493748395.68,27961,13.63,73946.0,-1.17,-30.77,-31.61,0,*5A
1493748396.93,27962,13.63,73946.8,-1.17,-30.73,-31.39,0,*50
1493748398.16,27963,13.63,73942.5,-1.17,-30.73,-31.45,0,*5A
1493748399.38,27964,13.63,73940.5,-1.17,-30.89,-31.67,0,*58
1493748400.64,27965,13.63,73940.3,-1.17,-30.77,-31.61,0,*5E
1493748401.9,27966,13.63,73944.0,-1.15,-30.89,-31.61,0,*5E
1493748403.15,27967,13.63,73944.5,-1.17,-30.89,-31.61,0,*5D
1493748404.4,27968,13.63,73940.5,-1.17,-30.77,-31.51,0,*50
1493748405.68,27969,13.63,73942.0,-1.19,-30.95,-31.61,0,*50
1493748406.94,27970,13.63,73940.0,-1.17,-30.95,-31.61,0,*56
1493748408.17,27971,13.63,73942.0,-1.15,-31.05,-31.73,0,*5E
1493748409.4,27972,13.63,73938.5,-1.17,-31.29,-31.95,0,*59
1493748410.63,27973,13.63,73936.0,-1.17,-31.29,-31.95,0,*58
1493748411.86,27974,13.63,73936.0,-1.15,-31.17,-31.57,0,*5E
1493748413.09,27975,13.63,73936.3,-1.17,-31.11,-31.79,0,*57
1493748414.34,27976,13.63,73940.8,-1.17,-30.95,-31.61,0,*50
1493748415.56,27977,13.63,73940.3,-1.17,-30.95,-31.67,0,*57
1493748416.81,27978,13.63,73946.8,-1.15,-30.89,-31.45,0,*57
1493748418.06,27979,13.63,73950.5,-1.17,-30.89,-31.51,0,*51
1493748419.25,27980,13.63,73948.3,-1.17,-31.05,-31.67,0,*57
1493748420.45,27981,13.63,73950.3,-1.17,-31.05,-31.79,0,*59
1493748421.64,27982,13.63,73944.5,-1.17,-31.05,-31.67,0,*55
1493748422.86,27983,13.63,73948.0,-1.19,-31.05,-31.67,0,*5A
1493748424.06,27984,13.63,73954.0,-1.17,-31.05,-31.67,0,*53
1493748425.25,27985,13.63,73948.0,-1.17,-31.05,-31.67,0,*52
1493748426.48,27986,13.63,73946.3,-1.17,-31.23,-31.79,0,*5A
1493748427.74,27987,13.63,73946.0,-1.19,-31.11,-31.79,0,*54
1493748428.97,27988,13.63,73944.0,-1.15,-31.05,-31.85,0,*51
1493748430.19,27989,13.63,73946.5,-1.17,-31.33,-31.85,0,*57
1493748431.45,27990,13.63,73946.0,-1.19,-31.29,-31.95,0,*5B
1493748432.68,27991,13.63,73948.3,-1.19,-31.45,-32.13,0,*5D
1493748433.93,27992,13.63,73944.8,-1.19,-31.23,-31.79,0,*51
1493748435.16,27993,13.63,73940.3,-1.17,-31.11,-31.79,0,*5F
1493748436.39,27994,13.63,73942.3,-1.19,-31.33,-32.01,0,*5A
1493748437.64,27995,13.63,73952.0,-1.19,-31.11,-31.79,0,*57
1493748438.92,27996,13.63,73956.3,-1.19,-30.95,-31.61,0,*50
1493748440.18,27997,13.63,73950.3,-1.19,-31.11,-31.67,0,*5A
1493748441.46,27998,13.63,73948.5,-1.19,-31.23,-31.85,0,*58
1493748442.71,27999,13.63,73950.0,-1.19,-31.29,-31.85,0,*53
1493748443.96,28000,13.63,73948.0,-1.19,-31.05,-31.61,0,*51
1493748445.24,28001,13.63,73946.3,-1.19,-30.95,-31.61,0,*58
1493748446.5,28002,13.63,73944.0,-1.19,-30.77,-31.45,0,*51
1493748447.75,28003,13.63,73952.3,-1.17,-30.89,-31.51,0,*5A
1493748448.95,28004,13.63,73950.3,-1.17,-31.05,-31.67,0,*5D
1493748450.14,28005,13.63,73948.0,-1.17,-31.05,-31.67,0,*5C
1493748451.37,28006,13.63,73942.5,-1.17,-31.23,-31.79,0,*54
1493748452.6,28007,13.63,73944.8,-1.15,-31.17,-31.73,0,*5A
1493748453.86,28008,13.63,73946.5,-1.19,-31.11,-31.79,0,*55
1493748455.14,28009,13.63,73946.5,-1.19,-31.11,-31.85,0,*57
1493748456.39,28010,13.63,73946.3,-1.19,-31.05,-31.61,0,*50
1493748457.61,28011,13.63,73944.0,-1.17,-31.05,-31.61,0,*5F
1493748458.87,28012,13.63,73944.8,-1.19,-31.11,-31.79,0,*5E
1493748460.12,28013,13.63,73944.8,-1.19,-31.23,-31.67,0,*51
1493748461.4,28014,13.63,73942.3,-1.19,-31.11,-31.85,0,*5B
1493748462.66,28015,13.63,73942.3,-1.19,-31.29,-31.85,0,*51
1493748463.88,28016,13.63,73942.3,-1.19,-31.29,-31.79,0,*51
1493748465.13,28017,13.63,73940.3,-1.19,-31.05,-31.51,0,*54
1493748466.35,28018,13.63,73940.8,-1.19,-31.05,-31.67,0,*5E
1493748467.64,28019,13.63,73940.3,-1.19,-31.11,-31.61,0,*5C
1493748468.89,28020,13.63,73946.3,-1.19,-31.23,-31.67,0,*51
1493748470.17,28021,13.63,73946.3,-1.19,-31.11,-31.61,0,*57
1493748471.43,28022,13.63,73940.5,-1.19,-31.11,-31.67,0,*52
1493748472.68,28023,13.63,73946.5,-1.19,-31.29,-31.85,0,*54
1493748473.93,28024,13.63,73940.3,-1.17,-30.95,-31.61,0,*51
1493748475.21,28025,13.63,73940.8,-1.19,-30.89,-31.61,0,*53
1493748476.44,28026,13.63,73948.0,-1.19,-31.05,-31.79,0,*5C
1493748477.66,28027,13.63,73944.0,-1.19,-31.05,-31.67,0,*52
1493748478.93,28028,13.63,73942.8,-1.19,-30.89,-31.51,0,*5D
1493748480.16,28029,13.63,73950.3,-1.17,-31.23,-31.67,0,*56
1493748481.36,28030,13.63,73944.8,-1.17,-31.29,-32.01,0,*57
1493748482.59,28031,13.63,73948.5,-1.17,-31.11,-31.67,0,*5E
1493748483.87,28032,13.63,73948.8,-1.19,-31.11,-31.61,0,*55
1493748485.07,28033,13.63,73948.0,-1.17,-31.05,-31.67,0,*59
1493748486.27,28034,13.63,73946.5,-1.17,-31.29,-31.79,0,*5F
1493748487.49,28035,13.63,73946.8,-1.17,-31.29,-31.85,0,*5D
1493748488.72,28036,13.63,73952.5,-1.17,-30.89,-31.45,0,*59
1493748489.94,28037,13.63,73950.3,-1.15,-31.01,-31.45,0,*5B
1493748491.19,28038,13.63,73952.8,-1.17,-30.95,-31.51,0,*5F
1493748492.41,28039,13.63,73954.0,-1.17,-31.05,-31.51,0,*56
1493748493.64,28040,13.63,73952.5,-1.15,-31.01,-31.57,0,*58
1493748494.84,28041,13.63,73950.3,-1.17,-31.05,-31.67,0,*5C
1493748496.06,28042,13.63,73950.8,-1.17,-31.05,-31.61,0,*59
1493748497.32,28043,13.63,73950.3,-1.17,-31.11,-31.61,0,*5D
1493748498.54,28044,13.63,73944.5,-1.17,-31.05,-31.51,0,*5C